Temperature
9 8 8 7 7 7 7 6 5 4 4 3 3 3 3 2 2 1 0 -0 -1 -2 -2 -3 -3 -3 -4 -4 -4 -4 -4 -5 -5 -5 -5 -5 -5 -5 -5 -5 -5 -5 -5
8 7 7 7 6 6 5 5 4 3 3 3 3 2 2 2 1 -0 -1 -2 -3 -3 -3 -4 -4 -5 -5 -5 -5 -5 -5 -5 -6 -6 -6 -6 -6 -6 -6 -5 -5 -5 -5
7 7 6 6 5 5 4 4 3 3 2 2 2 2 1 1 -0 -2 -3 -3 -4 -4 -5 -6 -6 -6 -6 -5 -5 -6 -6 -6 -6 -6 -6 -6 -6 -6 -6 -6 -6 -6 -6
6 6 6 5 4 4 3 3 2 2 2 2 1 1 0 -1 -2 -3 -4 -4 -5 -5 -6 -6 -7 -7 -6 -6 -6 -6 -6 -6 -7 -7 -7 -7 -7 -6 -6 -7 -7 -7 -7
6 5 5 4 4 3 3 2 2 1 1 1 1 -0 -1 -2 -3 -4 -5 -5 -6 -6 -6 -7 -7 -7 -7 -6 -6 -6 -7 -7 -7 -7 -7 -7 -7 -7 -7 -7 -8 -8 -8
5 5 4 3 3 2 2 1 1 1 1 0 -0 -1 -2 -3 -4 -5 -5 -6 -6 -7 -7 -7 -7 -7 -7 -7 -7 -7 -7 -7 -7 -7 -8 -8 -8 -8 -8 -8 -8 -9 -8
4 4 3 3 2 2 1 1 0 0 -0 -1 -1 -2 -3 -4 -5 -5 -6 -6 -7 -7 -8 -8 -8 -8 -8 -8 -8 -7 -7 -8 -8 -8 -8 -8 -9 -9 -9 -9 -9 -9 -9
4 3 3 2 1 1 0 0 -0 -0 -1 -1 -2 -3 -4 -4 -5 -6 -6 -7 -7 -8 -8 -8 -8 -8 -8 -8 -8 -8 -8 -8 -9 -9 -9 -9 -9 -9 -9 -9 -9 -9 -9
3 2 2 1 1 0 0 -0 -1 -1 -2 -2 -3 -4 -5 -5 -6 -6 -7 -7 -8 -8 -8 -8 -8 -8 -8 -8 -8 -8 -9 -9 -9 -9 -9 -9 -9 -10 -10 -10 -10 -10 -10
2 1 1 0 -0 -0 -0 -1 -1 -2 -2 -3 -3 -4 -5 -6 -6 -7 -7 -7 -8 -8 -8 -9 -9 -9 -8 -8 -8 -9 -9 -9 -10 -10 -10 -10 -10 -10 -10 -10 -10 -10 -10
1 1 0 -0 -0 -1 -1 -1 -2 -3 -3 -3 -4 -5 -6 -7 -7 -7 -8 -8 -8 -8 -9 -9 -9 -9 -9 -9 -9 -9 -10 -9 -10 -10 -11 -11 -11 -11 -11 -11 -11 -11 -10
0 0 -0 -0 -1 -1 -2 -2 -3 -3 -4 -5 -5 -6 -7 -8 -8 -8 -9 -8 -9 -9 -9 -9 -9 -9 -9 -9 -10 -10 -10 -10 -11 -11 -11 -11 -11 -11 -11 -10 -10 -10 -9
-0 -0 -0 -1 -1 -2 -3 -3 -3 -4 -5 -6 -7 -7 -8 -8 -9 -9 -9 -9 -9 -9 -10 -10 -9 -9 -10 -10 -11 -11 -11 -11 -12 -11 -11 -11 -11 -11 -11 -10 -9 -9 -8
-0 -0 -1 -1 -2 -2 -3 -3 -4 -5 -6 -7 -7 -8 -8 -9 -9 -9 -9 -9 -10 -10 -10 -10 -10 -10 -11 -11 -11 -12 -12 -12 -12 -12 -12 -12 -12 -11 -11 -10 -10 -9 -9
-1 -1 -2 -2 -2 -3 -3 -4 -5 -6 -7 -8 -8 -8 -9 -9 -9 -9 -9 -9 -10 -10 -10 -10 -11 -11 -12 -12 -12 -12 -12 -12 -12 -12 -12 -12 -12 -11 -10 -10 -10 -9 -9
-1 -2 -2 -3 -3 -3 -4 -5 -5 -7 -8 -8 -8 -9 -9 -9 -9 -9 -10 -10 -10 -10 -10 -11 -12 -12 -12 -12 -12 -12 -12 -12 -12 -12 -12 -12 -11 -11 -10 -10 -10 -9 -9
-2 -2 -3 -3 -4 -5 -5 -6 -7 -7 -8 -9 -9 -9 -9 -9 -9 -10 -10 -10 -11 -11 -12 -12 -12 -12 -12 -12 -12 -12 -12 -12 -12 -12 -11 -11 -11 -11 -10 -10 -10 -9 -9
-2 -3 -3 -4 -5 -5 -6 -7 -8 -9 -9 -9 -9 -10 -10 -10 -10 -11 -11 -11 -12 -12 -12 -12 -13 -13 -13 -13 -13 -13 -12 -12 -11 -11 -11 -10 -10 -10 -10 -10 -9 -9 -9
-3 -4 -4 -5 -6 -6 -7 -8 -9 -9 -10 -10 -10 -10 -10 -11 -11 -11 -12 -12 -12 -12 -13 -13 -13 -13 -13 -13 -13 -13 -12 -12 -11 -11 -10 -10 -10 -10 -10 -9 -9 -9 -9
-4 -5 -5 -6 -7 -8 -9 -9 -9 -10 -10 -10 -10 -11 -11 -11 -11 -12 -12 -13 -13 -13 -13 -13 -13 -13 -13 -13 -13 -12 -12 -11 -10 -10 -10 -10 -9 -9 -9 -9 -9 -9 -9
-5 -5 -6 -7 -8 -8 -9 -10 -10 -10 -10 -11 -11 -11 -11 -12 -12 -12 -13 -13 -13 -13 -13 -13 -13 -12 -12 -12 -12 -12 -11 -10 -10 -10 -9 -9 -9 -9 -8 -8 -8 -8 -8
-6 -6 -7 -8 -9 -9 -10 -10 -10 -10 -11 -11 -11 -11 -12 -12 -13 -13 -13 -13 -13 -13 -13 -13 -12 -12 -12 -12 -12 -11 -11 -10 -9 -9 -9 -9 -8 -8 -8 -8 -8 -8 -8
-6 -7 -7 -9 -9 -10 -10 -10 -10 -11 -11 -11 -11 -12 -12 -13 -13 -13 -13 -13 -12 -12 -12 -12 -11 -11 -11 -11 -11 -10 -10 -9 -9 -9 -8 -8 -8 -7 -7 -7 -7 -7 -7
-7 -8 -9 -9 -10 -10 -10 -11 -11 -11 -11 -11 -12 -12 -13 -13 -13 -13 -13 -12 -12 -12 -11 -11 -11 -10 -10 -10 -10 -9 -9 -8 -8 -8 -8 -7 -7 -7 -7 -7 -7 -7 -7
-8 -8 -9 -9 -10 -10 -11 -11 -11 -11 -11 -12 -12 -13 -13 -13 -13 -12 -12 -12 -12 -12 -11 -11 -10 -10 -10 -9 -9 -8 -8 -8 -7 -7 -7 -7 -7 -7 -7 -7 -6 -6 -6
-8 -9 -10 -10 -10 -11 -11 -11 -11 -11 -12 -13 -13 -13 -13 -13 -12 -12 -12 -12 -12 -11 -11 -10 -10 -10 -9 -8 -8 -8 -7 -7 -7 -7 -6 -7 -7 -7 -6 -6 -6 -6 -6
Wind_Speed
8 7 8 6 5 5 5 5 5 5 5 6 6 7 7 8 8 7 8 10 10 10 11 13 13 13 10 8 8 7 8 9 17 20 17 15 15 17 18 12 12 13 15
7 8 7 5 5 5 5 5 5 5 5 6 6 7 8 9 8 8 10 11 9 12 14 14 15 14 13 11 8 9 9 10 14 21 19 16 17 17 18 16 18 18 12
7 7 6 6 5 5 5 5 5 5 6 6 7 7 8 9 9 9 10 9 9 12 14 15 16 16 15 10 10 10 10 14 12 17 20 17 16 16 18 18 17 12 17
7 7 6 5 4 4 4 4 5 6 6 7 7 8 8 9 9 10 9 8 10 11 13 15 16 16 15 13 13 12 12 14 15 16 18 17 17 16 15 15 16 10 13
8 7 6 4 3 3 4 5 6 6 8 8 8 8 8 9 10 11 10 11 10 11 13 15 16 20 24 20 18 14 15 15 16 17 18 18 18 16 15 13 18 17 14
8 7 5 2 2 3 4 5 6 7 8 8 8 9 9 11 19 24 19 10 9 12 15 15 16 17 21 27 30 29 26 21 19 19 19 20 22 19 16 17 18 20 21
7 6 4 2 2 3 5 6 7 7 7 8 9 9 9 12 23 24 23 14 10 11 14 15 17 18 23 16 24 28 23 28 29 21 21 21 22 20 20 21 20 21 21
6 5 3 1 2 4 5 7 7 7 8 8 9 10 10 14 23 24 24 13 9 11 12 14 16 15 19 23 20 19 17 17 23 19 16 18 19 18 19 21 21 20 18
5 4 3 2 3 5 6 7 7 7 8 9 9 10 10 12 20 23 23 10 9 11 13 15 18 18 27 32 23 21 21 17 23 28 30 29 32 32 26 18 17 17 19
5 3 2 2 4 6 7 7 6 7 8 9 10 10 10 10 19 23 24 8 11 12 13 14 21 25 30 33 23 20 20 18 18 19 19 21 19 21 27 17 15 17 18
4 2 1 3 4 6 5 6 7 8 9 9 10 9 9 12 19 23 25 13 12 15 15 15 15 29 33 34 29 16 22 25 17 15 15 15 14 12 13 13 14 15 17
3 1 3 4 4 5 6 7 7 8 8 9 9 9 7 10 16 21 26 24 23 17 16 15 17 32 34 32 24 25 31 26 13 15 15 14 14 13 13 15 17 16 16
1 2 3 5 5 5 6 7 7 7 7 7 8 9 9 8 12 24 25 27 29 19 16 26 30 32 29 19 24 29 24 14 14 15 15 14 12 13 14 14 15 15 15
1 3 4 5 6 6 5 6 6 6 7 7 8 10 10 9 9 10 11 15 21 19 16 21 26 25 21 22 21 17 13 13 15 14 15 14 12 11 13 13 14 14 12
3 4 5 5 5 6 6 6 8 7 10 12 8 8 10 11 15 26 22 16 16 18 20 11 9 12 12 13 13 13 13 14 15 14 14 14 15 14 14 12 12 13 11
3 4 4 4 5 6 7 8 12 14 19 21 20 19 14 19 27 28 29 30 31 29 19 13 13 13 14 15 16 16 15 15 15 15 14 14 14 14 14 13 12 11 12
3 4 4 5 5 6 7 9 11 12 16 18 20 22 22 25 26 27 29 29 27 24 14 12 13 14 14 15 15 15 15 15 14 14 14 14 14 13 13 13 12 11 11
4 6 6 5 5 6 7 8 8 10 11 9 14 21 24 25 25 27 28 23 16 15 11 12 14 14 14 15 15 15 15 15 14 14 14 13 13 13 13 13 11 11 11
4 4 5 5 5 6 7 8 7 9 10 11 10 13 20 22 23 24 22 12 13 13 13 13 13 14 14 14 14 14 14 14 15 14 14 13 13 13 12 12 11 15 12
4 9 9 6 5 6 6 7 8 8 9 10 11 11 12 13 10 12 11 10 11 13 14 14 14 14 14 14 14 14 14 14 15 13 13 13 12 11 12 12 11 10 9
4 7 12 8 5 6 7 7 8 8 9 9 9 14 22 13 11 12 12 12 12 13 14 14 14 14 14 13 13 14 15 14 14 13 13 13 12 11 10 10 10 9 8
4 5 5 6 6 6 8 7 8 8 9 11 10 13 21 13 10 11 12 12 11 12 13 13 13 13 13 13 14 14 14 15 14 14 14 13 11 10 10 9 8 7 6
5 6 6 6 6 11 11 7 8 8 9 9 11 12 12 12 12 12 12 12 12 13 13 13 14 14 13 13 13 13 14 14 14 16 15 13 10 9 9 8 8 7 6
6 6 6 6 6 7 7 8 8 9 10 11 12 12 12 12 13 13 13 12 13 13 13 13 14 17 20 17 14 14 14 15 16 14 13 11 10 9 8 7 7 6 5
6 6 6 6 7 7 8 8 8 10 12 13 12 12 13 13 13 13 12 12 13 14 16 16 14 15 20 24 22 18 22 27 21 12 9 8 9 9 7 7 5 4 4
6 6 6 6 6 7 7 8 9 10 11 12 12 12 13 13 12 12 12 12 13 15 16 15 17 20 24 20 20 25 28 24 19 17 10 7 7 7 6 5 6 4 4
Wind_Direction
112 102 92 79 64 67 64 45 20 7 359 349 340 332 326 321 323 322 319 313 307 310 312 310 306 304 301 298 293 291 288 291 296 300 301 302 301 301 299 290 288 287 290
109 102 97 88 66 57 50 31 12 358 346 336 330 325 320 320 319 316 315 312 314 321 316 311 309 310 305 301 296 296 297 295 294 296 298 299 297 296 295 292 297 295 294
112 109 101 83 63 47 31 13 356 341 329 323 321 317 312 310 308 307 306 310 323 317 311 310 309 307 303 300 300 298 296 296 291 293 296 298 296 295 294 294 292 290 296
110 101 91 78 62 35 13 352 337 325 317 312 307 301 300 302 303 301 302 316 309 307 308 307 305 303 302 303 301 293 295 297 296 296 297 299 299 296 295 300 301 293 296
115 105 92 73 55 18 355 336 320 311 307 299 297 298 299 304 305 309 314 312 310 310 307 304 302 304 305 306 305 305 305 303 304 302 302 303 303 305 306 305 304 304 295
116 111 104 69 23 0 336 314 303 298 295 298 300 302 304 310 314 316 316 310 308 309 308 306 303 302 305 310 309 307 306 308 310 307 305 304 304 304 305 303 303 302 300
113 112 109 61 359 338 319 308 302 301 304 308 306 307 305 308 315 316 318 319 308 304 304 306 309 311 313 305 303 308 310 308 307 304 302 301 302 304 303 301 299 297 297
122 128 123 57 336 322 309 303 305 309 310 308 307 304 303 308 317 319 319 318 299 297 302 305 306 307 307 308 309 311 307 304 302 302 298 299 301 301 300 301 302 300 295
128 118 89 25 330 311 304 306 310 312 311 306 302 303 303 308 318 319 318 306 302 301 303 306 308 306 306 312 316 311 309 307 309 308 307 307 307 308 308 306 304 302 301
116 97 52 327 301 297 301 309 312 313 305 304 305 304 304 308 318 321 321 311 312 311 309 307 309 311 312 315 315 313 313 312 312 313 311 308 304 302 305 303 302 301 301
102 83 310 296 296 298 304 305 302 298 298 303 306 309 311 316 324 326 324 323 318 317 316 315 313 314 315 317 319 317 313 317 320 316 311 307 305 303 302 299 296 294 295
116 267 289 297 303 306 300 295 295 299 304 308 313 314 314 322 325 323 323 323 323 319 316 313 312 315 319 322 324 319 320 325 320 313 310 311 312 310 307 303 298 292 286
114 305 311 315 306 300 299 300 303 303 305 310 314 316 318 317 319 320 320 320 321 320 313 313 316 320 325 326 321 322 325 321 314 313 313 313 309 303 305 306 305 300 293
358 329 322 313 306 307 306 303 304 307 309 308 309 311 311 310 308 309 311 316 321 319 312 314 321 323 324 323 322 320 317 313 317 314 313 310 309 309 311 313 313 314 312
360 334 320 314 316 314 308 303 310 301 304 313 306 304 310 313 313 320 323 322 322 317 323 324 323 323 323 321 321 319 320 320 319 317 315 316 316 316 315 316 314 318 320
346 325 319 321 319 314 311 312 313 315 318 321 321 318 317 316 319 323 325 325 325 328 332 328 324 322 321 322 322 321 321 321 320 319 316 316 316 316 316 317 318 322 326
322 313 313 316 312 311 314 315 316 319 319 320 322 323 322 322 325 328 328 328 330 333 330 322 321 321 321 320 319 319 319 319 318 317 316 315 315 314 315 317 321 325 328
315 313 312 302 310 316 313 309 309 315 319 317 321 323 324 326 328 329 329 332 329 328 323 321 321 320 319 318 318 318 318 318 318 318 316 314 314 314 315 317 321 326 329
318 307 303 306 307 302 301 303 306 310 313 315 316 321 325 325 326 327 331 328 323 324 324 322 320 319 318 317 317 316 316 316 316 316 314 314 314 314 316 319 323 329 333
318 315 316 305 296 296 300 306 309 310 311 312 315 318 321 321 325 326 326 321 323 323 322 320 318 316 317 316 316 316 317 316 315 315 314 314 314 316 318 321 325 329 330
319 315 315 313 302 301 303 303 304 306 307 309 311 316 323 326 324 321 322 324 323 322 320 319 317 315 315 315 316 315 314 314 313 313 313 313 315 319 321 321 323 326 328
314 301 300 299 299 300 305 304 306 306 307 310 313 317 322 324 318 318 320 321 320 318 317 317 315 313 314 315 315 315 313 311 311 312 312 313 317 319 319 319 322 325 328
304 298 299 299 302 313 316 307 305 307 310 312 316 318 320 320 320 320 320 321 319 318 318 317 315 313 313 313 312 310 307 305 304 304 307 312 317 318 316 315 318 324 331
296 295 300 307 308 306 305 307 310 314 317 317 317 317 318 319 319 319 319 318 318 318 317 316 313 311 311 315 314 309 303 301 302 304 307 312 314 314 314 315 317 324 335
303 308 312 310 309 308 309 311 314 317 317 315 314 316 319 318 317 317 317 317 317 317 316 316 314 314 314 314 312 309 308 313 322 330 323 317 315 316 320 324 332 340 359
313 314 311 306 304 306 310 312 311 310 310 311 314 316 316 315 315 316 317 318 320 319 317 315 313 314 314 314 311 314 319 329 342 347 344 324 327 338 344 345 351 7 23
Height
1476 1477 1478 1479 1479 1478 1477 1476 1474 1471 1469 1466 1464 1461 1458 1454 1450 1446 1441 1437 1432 1428 1424 1419 1414 1409 1404 1400 1396 1391 1387 1382 1371 1358 1353 1348 1343 1337 1332 1329 1325 1320 1315
1474 1475 1476 1477 1477 1476 1475 1473 1471 1469 1466 1464 1461 1458 1454 1450 1445 1440 1435 1431 1427 1422 1417 1412 1406 1402 1397 1393 1388 1383 1378 1373 1367 1355 1345 1341 1335 1330 1323 1318 1314 1310 1305
1472 1473 1474 1474 1474 1473 1472 1470 1468 1466 1463 1460 1457 1453 1449 1444 1439 1435 1430 1426 1421 1416 1410 1405 1400 1395 1390 1386 1381 1376 1370 1365 1359 1350 1340 1333 1327 1321 1314 1307 1303 1298 1294
1469 1471 1472 1472 1471 1470 1469 1467 1465 1463 1460 1457 1453 1449 1444 1439 1434 1430 1425 1420 1415 1409 1404 1399 1394 1390 1385 1380 1374 1369 1363 1357 1351 1343 1333 1325 1319 1312 1306 1298 1291 1286 1281
1467 1468 1469 1469 1469 1467 1466 1464 1462 1459 1456 1452 1448 1443 1439 1434 1430 1426 1421 1415 1409 1402 1397 1393 1389 1385 1380 1375 1370 1363 1357 1350 1343 1335 1327 1318 1311 1304 1298 1291 1283 1275 1268
1465 1466 1467 1466 1465 1464 1463 1461 1458 1455 1451 1447 1443 1438 1434 1430 1426 1421 1416 1409 1403 1397 1391 1386 1382 1378 1374 1369 1363 1358 1352 1345 1336 1329 1320 1312 1304 1298 1290 1283 1276 1267 1255
1462 1463 1464 1463 1462 1461 1460 1457 1454 1451 1447 1442 1438 1433 1429 1424 1420 1415 1410 1404 1398 1392 1387 1381 1376 1372 1367 1361 1354 1348 1343 1338 1333 1325 1314 1306 1298 1290 1283 1274 1267 1259 1250
1460 1461 1461 1461 1460 1458 1456 1454 1450 1446 1442 1438 1433 1428 1423 1419 1415 1410 1404 1398 1392 1387 1382 1377 1371 1365 1360 1354 1346 1339 1333 1327 1322 1315 1307 1298 1291 1283 1277 1268 1259 1250 1242
1458 1459 1459 1458 1457 1455 1453 1450 1446 1442 1438 1433 1428 1423 1418 1413 1409 1404 1399 1393 1387 1381 1376 1371 1366 1359 1353 1347 1340 1331 1323 1316 1311 1305 1298 1290 1283 1276 1269 1261 1252 1244 1233
1456 1456 1456 1455 1454 1452 1449 1446 1442 1438 1433 1428 1423 1418 1414 1408 1404 1400 1395 1389 1382 1375 1369 1364 1359 1353 1347 1340 1333 1324 1315 1307 1300 1293 1286 1279 1273 1266 1261 1255 1247 1239 1229
1454 1454 1453 1452 1451 1449 1446 1442 1438 1433 1428 1423 1418 1413 1409 1404 1399 1395 1390 1385 1378 1371 1364 1357 1351 1346 1340 1333 1326 1318 1311 1303 1294 1286 1278 1270 1264 1258 1252 1246 1240 1233 1224
1452 1451 1451 1450 1448 1445 1441 1437 1433 1428 1423 1418 1412 1407 1404 1400 1395 1389 1385 1380 1375 1367 1359 1352 1345 1339 1333 1326 1319 1312 1305 1297 1289 1280 1273 1265 1258 1251 1244 1237 1230 1224 1217
1449 1449 1448 1447 1444 1441 1437 1433 1429 1424 1419 1414 1409 1403 1398 1394 1389 1385 1380 1374 1368 1362 1354 1347 1340 1333 1326 1319 1313 1307 1300 1291 1284 1276 1269 1261 1253 1245 1237 1230 1223 1216 1209
1447 1446 1445 1443 1440 1437 1434 1430 1425 1420 1415 1410 1405 1400 1395 1389 1385 1379 1374 1368 1361 1355 1347 1340 1334 1327 1321 1314 1307 1300 1294 1288 1281 1273 1265 1256 1248 1240 1233 1227 1219 1212 1205
1445 1443 1442 1439 1436 1433 1430 1426 1421 1417 1414 1409 1404 1399 1393 1387 1382 1378 1372 1364 1357 1350 1342 1335 1328 1322 1315 1308 1302 1295 1289 1282 1276 1268 1260 1252 1244 1237 1230 1224 1218 1211 1205
1442 1440 1438 1436 1433 1429 1424 1420 1417 1414 1410 1407 1402 1398 1392 1387 1380 1374 1367 1360 1353 1346 1339 1332 1325 1319 1312 1306 1299 1291 1285 1278 1272 1264 1257 1250 1242 1235 1228 1222 1217 1211 1205
1439 1437 1435 1432 1429 1425 1420 1415 1410 1407 1405 1401 1397 1393 1388 1382 1376 1369 1362 1355 1349 1343 1336 1329 1323 1317 1310 1303 1296 1289 1282 1275 1268 1261 1254 1247 1241 1234 1228 1221 1216 1211 1205
1437 1434 1432 1428 1425 1421 1417 1413 1408 1403 1398 1394 1391 1387 1383 1377 1371 1365 1358 1351 1343 1338 1333 1327 1320 1314 1307 1300 1293 1286 1279 1272 1265 1258 1252 1245 1239 1233 1227 1221 1216 1211 1205
1434 1431 1428 1425 1421 1418 1413 1410 1406 1401 1396 1390 1385 1380 1377 1371 1366 1360 1354 1348 1341 1335 1330 1323 1317 1311 1304 1297 1291 1284 1277 1269 1263 1256 1250 1243 1238 1232 1226 1221 1216 1211 1207
1430 1428 1425 1421 1417 1414 1410 1406 1402 1398 1393 1388 1382 1377 1371 1366 1359 1354 1349 1344 1338 1332 1326 1320 1313 1307 1301 1294 1287 1280 1273 1267 1260 1254 1248 1242 1237 1232 1226 1221 1216 1212 1208
1427 1424 1421 1417 1414 1410 1406 1403 1399 1394 1390 1385 1380 1375 1370 1363 1356 1350 1345 1340 1335 1329 1323 1316 1310 1304 1297 1291 1284 1278 1271 1265 1259 1253 1247 1241 1236 1231 1226 1222 1217 1213 1210
1423 1420 1417 1413 1410 1407 1403 1400 1396 1391 1386 1381 1375 1370 1365 1359 1353 1348 1342 1337 1331 1326 1320 1314 1307 1301 1295 1288 1282 1275 1269 1263 1257 1252 1246 1241 1236 1232 1227 1222 1218 1215 1212
1419 1416 1412 1409 1406 1403 1399 1395 1392 1387 1382 1377 1371 1366 1360 1355 1350 1344 1339 1333 1327 1322 1316 1310 1304 1298 1292 1286 1280 1274 1268 1262 1256 1251 1246 1242 1237 1232 1228 1223 1220 1217 1214
1415 1412 1409 1406 1402 1399 1395 1391 1387 1383 1378 1372 1367 1362 1357 1352 1347 1341 1336 1330 1324 1319 1313 1308 1302 1295 1289 1283 1277 1272 1266 1261 1256 1251 1247 1242 1237 1232 1228 1225 1222 1219 1217
1411 1408 1405 1402 1398 1395 1391 1387 1382 1378 1373 1368 1363 1358 1353 1348 1343 1338 1332 1327 1321 1316 1310 1305 1299 1293 1287 1281 1275 1270 1264 1259 1256 1251 1246 1242 1237 1233 1230 1226 1224 1221 1220
1408 1405 1401 1398 1394 1390 1386 1382 1377 1373 1368 1364 1359 1355 1349 1344 1339 1334 1329 1324 1319 1313 1308 1303 1297 1291 1285 1279 1274 1268 1264 1260 1255 1250 1246 1242 1238 1235 1231 1229 1226 1224 1223